Agua Bronca, Mexico

11:49 AM MDT on July 24, 2017 (GMT -0600)
Abraham Gonzalez International | | Change Station

Elev 3842 ft 31.63 °N, 106.43 °W | Updated 1 hour ago

Partly Cloudy
Partly Cloudy
81 °F
Feels Like 82 °F
N
0
Wind Variable Wind from North

Today
High -- | Low -- °F
--% Chance of Precip.
Yesterday
High -- | Low -- °F
Precip. -- in
Pressure 30.13 in
Visibility 10.0 miles
Clouds Few 4000 ft
Mostly Cloudy 10000 ft
Mostly Cloudy 25000 ft
Heat Index 82 °F
Dew Point 64 °F
Humidity 58%
Rainfall 0.00 in
Snow Depth Not available.
6:15 AM 8:03 PM
New Moon, 2% visible
METAR MMCS 241640Z 00000KT 10SM FEW040 BKN100 BKN250 27/18 A3013 RMK 8/132
Pressure 30.13 in
Visibility 10.0 miles
Clouds Few 4000 ft
Mostly Cloudy 10000 ft
Mostly Cloudy 25000 ft
Heat Index 82 °F
Dew Point 64 °F
Humidity 58%
Rainfall 0.00 in
Snow Depth Not available.
6:15 AM 8:03 PM
New Moon, 2% visible
METAR MMCS 241640Z 00000KT 10SM FEW040 BKN100 BKN250 27/18 A3013 RMK 8/132

Get Severe Weather Alerts

Thanks for signing up!

Be on the lookout for a verification email in your inbox.

You'll start receiving the daily forecast at 6 AM.

×

10-Day Weather Forecast

No radar image for this location.
×

Almanac

Astronomy

Jul. 24, 2017 Rise Set
Actual Time
Civil Twilight
Nautical Twilight
Astronomical Twilight
Moon
Length of Visible Light
Length of Day
Tomorrow will be .
, % of the Moon is Illuminated

Today's Extremes

Country Highs Country Lows

Community

WunderPhotos

Category 6

Welcome to Category 6. This is the collective home for Weather Underground's featured writeups by Dr. Jeff Masters (right), Bob Henson (left), Chris Burt, and other regular contributors.

Nearby

Air Quality

  Air Quality AQ Index Pollutant
Not available.

Snow Depth

Station Depth Elevation

Earthquake Activity

City Distance Mag. Time & Date
Minimum magnitude displayed is 2.5.

Coastal Water Temperatures

Place Temperature

Stations

Nearby Weather Stations

Station Location Temp. Windchill Dew Point Humidity Wind Precip. Elev Updated Type